Location: Deuil
(48.9767°N, 2.3272°E)
Time: 02:17:45
(UTC+00:00)

Cosmos 2360 Rocket - Pass Details

Date: 28 May 2022
Orbit: 832 x 846 km, 71.0° (Epoch: 03 July)

Event Time Altitude Azimuth Distance (km) Brightness Sun altitude
Rises 00:49:05 0° 265° (W) 3,387 5.1 -18.3°
Reaches altitude 10° 00:52:28 10° 286° (WNW) 2,459 4.6 -18.1°
Maximum altitude 00:56:01 17° 325° (NW) 2,028 4.6 -18.0°
Drops below altitude 10° 00:59:35 10° 4° (N) 2,471 5.8 -17.8°
Sets 01:03:01 0° 25° (NNE) 3,412 7.1 -17.6°
